• In Netherlands
  • List of Countries
  • For 7 days
  • Water Temperature
  • Satellite Maps
  • Weather Map
  • Weather Widgets
  • user-avatar
    Login

    Hourly Weather Malanville

    Today, 28 July, Friday

    Time Temperature Precipitation Wind Pressure Humidity
    00:00 +31°C° 0 mm 3 mps 744 mmHg 58%
    01:00 +30°C° 0.2 mm 3 mps 744 mmHg 62%
    02:00 +29°C° 0.2 mm 3 mps 744 mmHg 65%
    03:00 +29°C° 0.2 mm 3 mps 744 mmHg 68%
    04:00 +29°C° 0 mm 3 mps 744 mmHg 69%
    05:00 +28°C° 0 mm 3 mps 744 mmHg 71%
    06:00 +28°C° 0 mm 2 mps 745 mmHg 73%
    07:00 +30°C° 0 mm 2 mps 745 mmHg 66%
    08:00 +32°C° 0 mm 2 mps 745 mmHg 58%
    09:00 +35°C° 0 mm 2 mps 745 mmHg 51%
    10:00 +37°C° 0 mm 2 mps 745 mmHg 44%
    11:00 +39°C° 0 mm 1 mps 744 mmHg 38%
    12:00 +37°C° 0 mm 0 mps 744 mmHg 35%
    13:00 +40°C° 0 mm 1 mps 744 mmHg 35%
    14:00 +39°C° 0 mm 1 mps 743 mmHg 35%
    15:00 +39°C° 0 mm 2 mps 742 mmHg 36%
    16:00 +38°C° 0 mm 2 mps 742 mmHg 37%
    17:00 +38°C° 0 mm 2 mps 742 mmHg 39%
    18:00 +37°C° 0 mm 2 mps 743 mmHg 40%
    19:00 +36°C° 0.3 mm 2 mps 743 mmHg 45%
    20:00 +35°C° 0.3 mm 2 mps 743 mmHg 49%
    21:00 +34°C° 0.3 mm 3 mps 744 mmHg 53%
    22:00 +33°C° 0.1 mm 3 mps 744 mmHg 56%
    23:00 +31°C° 0.1 mm 3 mps 744 mmHg 59%

    Tomorrow, 29 July, Saturday

    Time Temperature Precipitation Wind Pressure Humidity
    00:00 +31°C° 0.1 mm 3 mps 744 mmHg 62%
    01:00 +30°C° 0 mm 3 mps 743 mmHg 66%
    02:00 +29°C° 0 mm 4 mps 743 mmHg 69%
    03:00 +29°C° 0 mm 4 mps 743 mmHg 73%
    04:00 +28°C° 0.2 mm 4 mps 743 mmHg 75%
    05:00 +28°C° 0.2 mm 4 mps 744 mmHg 77%
    06:00 +28°C° 0.2 mm 4 mps 744 mmHg 78%
    07:00 +28°C° 0.8 mm 4 mps 745 mmHg 75%
    08:00 +29°C° 0.8 mm 4 mps 745 mmHg 72%
    09:00 +30°C° 0.8 mm 5 mps 746 mmHg 69%
    10:00 +33°C° 0 mm 5 mps 745 mmHg 62%
    11:00 +35°C° 0 mm 5 mps 745 mmHg 55%
    12:00 +36°C° 0 mm 5 mps 745 mmHg 48%
    13:00 +37°C° 0 mm 4 mps 744 mmHg 45%
    14:00 +38°C° 0 mm 4 mps 744 mmHg 43%
    15:00 +38°C° 0 mm 4 mps 743 mmHg 41%
    16:00 +37°C° 0 mm 3 mps 743 mmHg 43%
    17:00 +37°C° 0 mm 3 mps 743 mmHg 45%
    18:00 +36°C° 0 mm 2 mps 743 mmHg 48%
    19:00 +34°C° 0.3 mm 3 mps 743 mmHg 53%
    20:00 +33°C° 0.3 mm 3 mps 744 mmHg 58%
    21:00 +31°C° 0.3 mm 3 mps 744 mmHg 63%
    22:00 +30°C° 0.2 mm 3 mps 744 mmHg 67%
    23:00 +30°C° 0.2 mm 3 mps 745 mmHg 71%

    Day after tomorrow, 30 July, Sunday

    Time Temperature Precipitation Wind Pressure Humidity
    00:00 +29°C° 0.2 mm 3 mps 745 mmHg 74%
    01:00 +29°C° 0.6 mm 3 mps 745 mmHg 77%
    02:00 +28°C° 0.6 mm 3 mps 744 mmHg 80%
    03:00 +28°C° 0.6 mm 3 mps 744 mmHg 83%
    04:00 +28°C° 0.5 mm 3 mps 744 mmHg 83%
    05:00 +27°C° 0.5 mm 3 mps 745 mmHg 84%
    06:00 +27°C° 0.5 mm 3 mps 745 mmHg 85%
    07:00 +28°C° 0.2 mm 3 mps 746 mmHg 81%
    08:00 +29°C° 0.2 mm 3 mps 746 mmHg 77%
    09:00 +29°C° 0.2 mm 3 mps 746 mmHg 73%
    10:00 +31°C° 0 mm 3 mps 746 mmHg 68%
    11:00 +33°C° 0 mm 4 mps 745 mmHg 62%
    12:00 +34°C° 0 mm 5 mps 745 mmHg 56%
    13:00 +35°C° 0 mm 5 mps 744 mmHg 53%
    14:00 +36°C° 0 mm 5 mps 743 mmHg 50%
    15:00 +36°C° 0 mm 5 mps 743 mmHg 47%
    16:00 +35°C° 0 mm 3 mps 743 mmHg 49%
    17:00 +35°C° 0 mm 2 mps 743 mmHg 51%
    18:00 +33°C° 0 mm 1 mps 743 mmHg 54%
    19:00 +32°C° 0.1 mm 1 mps 743 mmHg 57%
    20:00 +31°C° 0.1 mm 1 mps 744 mmHg 61%
    21:00 +28°C° 0.1 mm 0 mps 744 mmHg 64%
    22:00 +30°C° 0.6 mm 1 mps 744 mmHg 67%
    23:00 +29°C° 0.6 mm 2 mps 744 mmHg 70%

    31 July, Monday

    Time Temperature Precipitation Wind Pressure Humidity
    00:00 +29°C° 0.6 mm 3 mps 744 mmHg 73%
    01:00 +28°C° 0.3 mm 3 mps 744 mmHg 77%
    02:00 +28°C° 0.3 mm 4 mps 744 mmHg 82%
    03:00 +27°C° 0.3 mm 4 mps 744 mmHg 86%
    04:00 +27°C° 0 mm 4 mps 744 mmHg 85%
    05:00 +27°C° 0 mm 4 mps 744 mmHg 85%
    06:00 +27°C° 0 mm 5 mps 745 mmHg 84%
    07:00 +28°C° 0 mm 4 mps 745 mmHg 79%
    08:00 +29°C° 0 mm 4 mps 746 mmHg 74%
    09:00 +30°C° 0 mm 3 mps 746 mmHg 69%
    10:00 +31°C° 0 mm 3 mps 746 mmHg 61%
    11:00 +34°C° 0 mm 3 mps 745 mmHg 54%
    12:00 +36°C° 0 mm 3 mps 745 mmHg 46%
    13:00 +36°C° 0 mm 3 mps 744 mmHg 45%
    14:00 +37°C° 0 mm 3 mps 744 mmHg 44%
    15:00 +37°C° 0 mm 3 mps 743 mmHg 43%
    16:00 +36°C° 0 mm 3 mps 743 mmHg 45%
    17:00 +35°C° 0 mm 3 mps 743 mmHg 48%
    18:00 +35°C° 0 mm 2 mps 743 mmHg 51%
    19:00 +34°C° 0 mm 3 mps 743 mmHg 54%
    20:00 +33°C° 0 mm 3 mps 744 mmHg 58%
    21:00 +31°C° 0 mm 3 mps 745 mmHg 61%
    22:00 +30°C° 0 mm 3 mps 745 mmHg 65%
    23:00 +29°C° 0 mm 4 mps 745 mmHg 68%

    1 August, Tuesday

    Time Temperature Precipitation Wind Pressure Humidity
    00:00 +29°C° 0 mm 4 mps 745 mmHg 71%
    01:00 +28°C° 0 mm 4 mps 744 mmHg 73%
    02:00 +28°C° 0 mm 3 mps 744 mmHg 75%
    03:00 +27°C° 0 mm 3 mps 744 mmHg 77%
    04:00 +27°C° 0.2 mm 3 mps 744 mmHg 79%
    05:00 +27°C° 0.2 mm 4 mps 745 mmHg 81%
    06:00 +26°C° 0.2 mm 4 mps 745 mmHg 83%
    07:00 +28°C° 0 mm 4 mps 745 mmHg 76%
    08:00 +29°C° 0 mm 5 mps 746 mmHg 69%
    09:00 +32°C° 0 mm 5 mps 746 mmHg 62%
    10:00 +34°C° 0 mm 5 mps 746 mmHg 55%
    11:00 +36°C° 0 mm 4 mps 745 mmHg 48%
    12:00 +38°C° 0 mm 4 mps 745 mmHg 41%
    13:00 +38°C° 0 mm 3 mps 744 mmHg 39%
    14:00 +39°C° 0 mm 3 mps 744 mmHg 37%
    15:00 +39°C° 0 mm 2 mps 743 mmHg 35%
    16:00 +38°C° 0 mm 2 mps 743 mmHg 38%
    17:00 +37°C° 0 mm 2 mps 743 mmHg 41%
    18:00 +36°C° 0 mm 2 mps 743 mmHg 44%
    19:00 +35°C° 0 mm 2 mps 743 mmHg 48%
    20:00 +34°C° 0 mm 3 mps 744 mmHg 52%
    21:00 +33°C° 0 mm 4 mps 744 mmHg 56%
    22:00 +32°C° 0 mm 4 mps 744 mmHg 59%
    23:00 +30°C° 0 mm 4 mps 744 mmHg 62%

    2 August, Wednesday

    Time Temperature Precipitation Wind Pressure Humidity
    00:00 +30°C° 0 mm 4 mps 744 mmHg 66%
    01:00 +29°C° 0.1 mm 4 mps 744 mmHg 69%
    02:00 +29°C° 0.1 mm 4 mps 744 mmHg 73%
    03:00 +28°C° 0.1 mm 4 mps 743 mmHg 76%
    04:00 +28°C° 0 mm 4 mps 744 mmHg 76%
    05:00 +28°C° 0 mm 3 mps 744 mmHg 76%
    06:00 +28°C° 0 mm 3 mps 745 mmHg 77%
    07:00 +29°C° 0.5 mm 3 mps 745 mmHg 73%
    08:00 +30°C° 0.5 mm 4 mps 746 mmHg 68%
    09:00 +32°C° 0.5 mm 4 mps 746 mmHg 64%
    10:00 +34°C° 0 mm 4 mps 745 mmHg 57%
    11:00 +36°C° 0 mm 4 mps 745 mmHg 50%
    12:00 +38°C° 0 mm 4 mps 744 mmHg 43%
    13:00 +40°C° 0 mm 4 mps 743 mmHg 40%
    14:00 +40°C° 0 mm 3 mps 743 mmHg 37%
    15:00 +42°C° 0 mm 3 mps 742 mmHg 34%
    16:00 +40°C° 0 mm 2 mps 742 mmHg 37%
    17:00 +39°C° 0 mm 2 mps 742 mmHg 40%
    18:00 +38°C° 0 mm 2 mps 743 mmHg 43%
    19:00 +36°C° 0.7 mm 3 mps 743 mmHg 51%
    20:00 +34°C° 0.7 mm 4 mps 744 mmHg 58%
    21:00 +33°C° 0.7 mm 5 mps 744 mmHg 65%
    22:00 +32°C° 0.8 mm 5 mps 744 mmHg 69%
    23:00 +30°C° 0.8 mm 5 mps 744 mmHg 73%
    Show more